Location: Houhaj�rvi
(61.2833°N, 23.0000°E)
Time: 17:13:37
(UTC+00:00)

FREGAT/IRIS - Pass Details

Date: 27 February 2020
Orbit: 335 x 336 km, 96.9° (Epoch: 01 April)

Event Time Altitude Azimuth Distance (km) Brightness Sun altitude
Exits shadow 16:23:18 - 122° (ESE) 1,980 5.7 -5.2°
Reaches altitude 10° 16:25:11 10° 105° (ESE) 1,295 4.7 -5.5°
Maximum altitude 16:27:08 18° 59° (ENE) 937 4.0 -5.7°
Drops below altitude 10° 16:29:07 10° 13° (NNE) 1,299 5.0 -5.9°
Sets 16:31:23 0° 353° (N) 2,143 6.4 -6.2°
